ECMWFNIL_500_rhum_021.txt.gz
RH
44 54 63 67 72 81 89 89 83 80 72 66 68 67 67 68 55 32 18 14 13 11 9 8 8 8 9 9 9 9 9 8 7 6 5 5 4 4 3 3 3 4
79 82 80 81 87 91 91 90 88 81 69 66 70 68 68 71 54 28 16 14 13 12 10 7 6 6 7 7 7 7 7 6 5 5 4 3 3 3 3 3 3 3
79 75 75 82 86 85 82 78 73 70 69 73 77 74 73 74 58 32 18 14 12 12 11 9 7 5 5 5 5 6 5 5 4 3 3 2 2 2 2 3 3 3
67 67 68 72 74 75 78 76 68 65 71 80 82 80 82 82 61 31 19 16 13 13 12 10 8 6 5 4 4 4 4 4 4 3 3 2 2 2 2 2 3 3
50 51 52 56 62 70 78 76 64 62 75 85 84 79 86 90 62 29 21 19 16 18 17 17 16 13 11 9 6 5 4 3 4 3 3 2 2 2 2 3 3 4
32 34 35 34 38 55 73 73 60 59 67 74 81 89 96 90 58 29 26 25 22 25 25 26 27 26 25 21 15 12 8 6 5 4 4 4 4 6 6 8 10 10
25 24 24 21 25 46 72 76 65 60 55 51 64 82 89 81 59 40 36 33 31 35 38 41 42 37 34 32 27 22 17 14 12 11 12 11 11 13 15 17 18 20
28 21 15 16 26 43 59 63 57 56 50 39 38 49 63 74 72 63 56 52 51 53 54 53 49 43 39 36 34 33 30 27 25 23 23 22 22 23 23 24 25 27
33 23 14 14 22 29 34 37 40 46 49 40 28 26 41 61 70 69 67 66 68 72 73 67 56 48 44 41 39 40 41 40 39 39 37 34 33 31 29 30 31 32
37 27 17 13 15 16 18 25 32 37 43 45 41 37 42 52 60 62 63 64 69 76 81 81 73 61 52 48 45 43 43 44 43 44 45 44 43 42 39 38 37 37
37 31 22 18 18 15 16 23 30 32 34 41 48 51 51 51 52 54 55 60 69 78 82 85 84 74 62 56 54 50 46 45 44 42 42 43 45 47 48 47 44 41
36 33 29 26 23 20 20 21 24 24 22 21 26 31 33 35 41 48 53 59 72 82 86 89 90 83 72 65 64 62 56 51 49 48 46 45 44 45 47 50 50 49
39 33 32 32 29 26 26 25 23 20 17 17 18 18 18 20 32 52 62 68 79 88 92 96 94 88 82 75 71 72 69 62 57 55 53 53 53 52 52 54 59 66
44 39 36 39 40 35 29 27 27 23 20 21 20 18 16 11 24 58 79 82 88 95 98 99 97 96 94 86 80 81 80 74 67 63 62 62 64 66 64 61 62 69
35 40 43 48 54 51 37 26 24 22 20 20 17 17 19 13 15 37 58 72 84 93 100 103 99 98 100 95 93 93 90 85 81 79 79 79 80 83 81 74 67 67
17 24 33 42 54 58 43 25 19 18 17 18 17 16 18 18 17 14 23 56 87 91 94 102 96 93 99 100 99 101 100 97 93 89 86 82 79 80 79 74 68 66
13 14 17 23 32 36 29 20 18 19 19 19 21 20 18 18 21 15 12 42 84 95 93 97 95 94 99 100 98 98 97 97 95 91 85 79 74 74 73 71 69 66
13 13 13 14 16 16 14 13 14 18 21 22 22 24 23 20 21 23 16 23 53 74 77 82 92 100 98 95 96 93 86 85 86 84 82 84 83 77 69 66 66 61
12 14 15 14 13 13 13 13 14 16 20 22 23 25 29 27 24 25 23 20 28 38 42 51 72 89 90 88 96 99 92 88 85 81 82 86 79 64 52 49 49 43
16 22 27 23 17 15 13 12 15 18 19 20 24 28 31 33 31 28 27 26 28 31 33 34 42 52 53 55 76 97 102 99 96 93 92 87 74 59 48 40 36 35
21 33 44 41 31 27 23 19 17 20 21 25 32 36 36 35 37 37 36 36 37 39 39 32 33 47 53 50 60 76 81 83 88 88 81 74 67 61 52 43 38 36
24 37 45 40 34 38 42 38 34 32 31 33 39 43 41 40 42 44 45 48 51 51 46 39 42 61 77 77 72 70 65 64 69 69 63 61 59 55 49 46 43 35
21 29 30 27 32 43 51 56 61 63 58 50 46 45 44 48 53 53 51 54 57 57 56 54 54 62 72 75 76 76 74 71 70 67 64 63 59 54 52 49 42 37
28 21 16 23 38 52 67 82 89 90 87 77 68 64 61 61 62 61 62 63 63 63 62 60 60 64 66 67 71 77 82 84 84 81 77 71 64 61 60 53 47 50
29 16 13 28 44 56 79 99 100 97 100 96 88 82 78 75 73 71 72 72 70 70 68 63 64 68 69 68 73 81 86 91 94 93 89 84 78 74 68 61 60 65
16 11 12 25 39 54 79 100 101 98 100 100 99 98 94 91 89 84 79 77 77 79 81 83 83 82 77 74 78 86 90 93 96 97 96 95 90 85 79 75 74 72

ECMWFNIL_500_rhum_024.txt.gz
RH
34 31 30 29 28 29 40 53 59 62 61 62 70 70 60 56 58 58 57 63 64 48 30 20 14 12 10 9 9 9 9 10 10 10 11 10 10 10 10 9 8 7
48 45 43 44 48 53 57 62 64 69 71 71 75 73 67 61 57 58 62 67 61 37 19 14 11 11 10 8 7 6 5 7 7 7 8 8 8 8 7 7 6 5
64 61 57 54 57 59 58 56 58 62 64 65 67 64 59 54 52 59 64 68 64 39 17 13 11 10 10 8 7 5 4 4 4 4 5 5 5 5 5 4 4 3
72 67 62 57 54 52 50 44 42 47 53 59 58 53 53 54 56 63 65 70 73 49 19 13 12 10 12 11 10 8 5 4 3 3 3 3 3 3 3 3 2 2
68 53 43 40 38 35 35 31 27 35 49 60 57 50 55 60 60 62 60 67 77 56 22 13 15 15 17 18 18 18 16 14 11 8 5 3 3 3 2 2 2 2
48 34 25 23 22 21 22 21 20 29 46 59 56 49 52 54 55 61 63 74 83 57 23 16 19 20 25 28 31 32 31 29 25 19 14 9 7 6 5 4 4 3
36 30 25 21 18 15 14 14 17 28 46 58 58 54 52 47 46 53 62 79 84 54 25 23 26 28 37 43 45 43 39 37 33 29 24 19 15 13 11 11 10 10
37 34 30 25 21 15 11 11 18 28 37 43 47 48 47 41 36 39 52 69 70 50 33 31 33 41 52 55 53 48 44 41 38 36 33 29 25 23 22 21 20 19
39 37 34 30 25 19 12 10 14 19 20 22 27 35 41 39 31 29 41 56 60 55 48 44 45 52 61 64 62 57 52 48 45 42 41 39 37 35 33 31 29 28
45 42 38 33 28 22 15 9 9 10 11 15 21 26 33 37 35 31 34 43 50 52 52 51 53 55 57 64 69 67 60 55 52 49 47 46 46 45 43 41 38 35
51 46 41 37 33 26 18 12 11 11 11 16 21 23 23 26 33 35 35 40 45 49 51 52 53 56 59 64 70 72 68 62 56 53 50 47 47 47 48 47 46 44
49 45 41 38 35 31 23 16 13 13 13 13 16 17 16 14 17 21 23 24 28 37 49 57 60 63 66 69 72 74 73 68 62 57 55 52 48 47 47 47 48 48
39 39 41 42 39 33 27 22 18 16 15 15 15 14 13 13 15 18 18 15 14 17 28 48 67 77 79 81 82 79 76 73 68 63 62 60 56 53 51 49 48 48
29 29 35 44 47 40 33 28 23 18 16 17 19 18 16 15 16 17 17 16 16 13 12 23 42 56 70 85 92 93 88 80 74 71 68 66 64 59 56 54 53 52
26 22 21 29 39 42 41 37 33 30 28 28 29 30 27 22 19 18 17 15 16 16 14 13 17 32 59 82 92 98 99 92 84 80 76 73 71 67 64 62 62 61
30 23 17 16 19 23 27 30 32 34 35 37 40 43 42 36 28 22 19 17 16 15 16 19 27 43 64 80 84 88 96 99 94 87 83 79 76 76 75 72 72 73
34 28 24 20 17 15 15 15 17 18 21 24 28 34 37 35 29 24 20 18 16 16 16 18 25 30 40 61 75 73 78 93 97 90 87 86 83 82 78 73 76 80
26 24 22 20 18 17 15 14 13 12 12 13 15 17 19 19 19 18 17 16 16 17 17 18 20 18 24 51 73 67 60 76 96 99 97 96 94 89 84 82 84 84
17 17 17 17 16 16 15 15 15 13 12 12 12 12 12 13 14 14 14 15 17 18 19 20 22 20 21 35 55 59 51 58 83 100 99 99 101 97 92 92 92 89
18 18 18 18 18 18 17 17 16 15 14 13 14 15 15 14 13 13 12 12 14 17 18 19 23 26 28 31 41 51 44 38 62 92 99 99 100 94 88 89 91 92
22 22 22 22 21 21 21 20 19 18 17 15 16 18 20 20 19 17 16 14 14 16 15 17 23 29 33 34 36 45 41 26 40 77 95 97 92 86 87 92 94 96
26 26 26 25 25 24 24 24 23 22 20 19 20 21 23 27 27 24 23 20 17 17 17 21 28 31 35 35 34 42 44 32 39 68 85 85 84 87 95 102 99 94
31 32 32 30 29 27 26 26 26 25 22 21 23 25 27 29 27 25 28 29 27 26 25 27 35 40 43 47 47 46 44 37 39 55 69 79 90 98 101 99 90 79
34 35 35 33 31 29 27 27 27 25 23 24 27 28 25 21 20 23 31 35 36 39 39 36 39 43 47 56 61 59 57 53 46 47 64 87 101 100 93 84 74 68
36 36 34 32 31 29 27 26 25 23 23 28 34 33 22 15 21 33 45 54 58 61 61 54 45 44 53 67 74 70 69 72 68 62 68 82 89 84 75 67 64 66
35 34 33 31 29 27 25 24 23 22 22 26 32 30 18 17 32 44 52 71 85 81 75 71 62 57 63 74 80 77 73 73 74 72 72 73 71 67 62 57 60 68

ECMWFNIL_500_rhum_030.txt.gz
RH
75 80 72 55 46 44 39 33 31 27 22 19 23 30 28 18 14 15 17 23 30 33 35 35 36 37 36 37 40 36 29 25 22 17 12 10 10 9 9 9 9 8
74 79 76 66 57 51 44 37 31 26 21 22 26 26 19 15 14 12 12 15 21 26 29 30 31 34 34 37 41 39 30 20 16 13 11 9 8 8 8 8 7 6
79 78 74 71 65 57 49 42 34 28 25 26 26 21 16 16 15 12 11 11 13 18 24 28 31 32 32 36 41 41 31 19 13 10 9 8 7 8 7 6 6 6
82 77 71 70 68 64 56 48 40 33 30 28 22 18 18 17 15 13 11 9 10 13 19 27 35 36 35 36 43 44 32 19 13 11 9 9 9 9 9 10 9 8
84 79 75 72 72 71 65 55 46 39 35 29 22 20 20 18 16 13 10 9 9 9 13 23 33 39 39 39 45 47 36 22 15 13 11 11 13 15 17 19 19 18
83 83 81 77 75 74 69 62 52 44 40 31 23 22 21 20 17 13 10 9 8 7 10 17 27 36 40 45 53 53 42 28 18 16 16 17 20 22 25 26 26 26
82 85 81 76 79 78 71 65 53 42 37 29 24 24 23 22 19 14 11 10 8 8 8 11 19 28 35 45 56 58 48 35 24 21 23 26 28 29 30 30 30 30
74 81 81 78 83 82 75 69 57 41 33 28 25 26 25 24 20 15 12 10 9 8 7 7 11 16 22 33 47 54 50 39 30 28 30 34 36 37 36 34 34 33
71 82 89 88 87 87 86 79 63 46 37 32 28 27 27 26 22 16 13 11 9 7 7 8 9 10 14 21 33 44 47 43 39 38 39 41 42 43 44 43 41 39
82 85 91 95 94 95 96 85 66 50 42 36 31 28 28 26 22 17 13 10 9 8 8 9 9 10 13 18 24 29 34 36 37 38 40 43 47 50 52 53 52 51
75 70 75 90 99 100 94 79 62 51 44 39 34 31 29 27 23 18 12 9 9 9 10 10 10 12 15 20 23 25 27 29 32 37 44 51 56 59 62 65 66 65
64 66 72 86 94 91 80 67 57 50 44 40 37 34 31 27 23 17 12 10 10 10 10 10 12 12 14 16 17 18 19 20 22 28 34 40 44 55 69 75 76 79
70 78 81 83 81 76 68 62 56 51 47 45 42 37 33 29 24 18 15 15 14 13 11 10 11 12 13 14 14 14 14 14 15 16 17 18 21 37 59 66 65 69
68 75 79 78 76 72 68 65 61 56 53 50 46 42 39 35 30 24 22 21 18 15 13 11 12 12 14 17 17 18 17 16 16 16 15 14 13 19 31 35 34 34
59 67 72 73 75 72 67 64 61 56 52 49 46 45 42 39 36 32 31 28 25 22 19 17 16 16 19 24 27 29 29 26 25 22 21 20 18 17 17 17 17 17
60 67 70 71 74 73 68 65 61 54 50 46 42 40 39 39 39 37 36 34 31 29 26 25 24 23 24 28 31 33 33 32 31 29 26 24 23 22 20 19 17 16
61 63 61 61 64 65 63 62 60 55 51 48 45 43 42 40 40 41 42 40 36 33 33 32 32 35 40 41 38 38 40 39 35 32 28 25 24 22 22 22 21 20
57 55 51 49 49 50 49 50 50 49 48 48 48 47 46 43 41 41 40 38 37 37 36 33 34 43 56 62 61 60 61 57 50 44 35 28 26 24 22 23 23 24
47 45 41 40 40 39 40 42 43 41 40 40 37 37 40 39 34 30 27 25 26 27 26 26 32 41 55 72 79 73 64 57 52 49 44 40 39 33 27 29 33 38
32 31 32 34 33 30 30 32 32 28 26 25 24 25 30 31 27 24 25 24 23 24 23 24 29 32 40 55 65 63 59 54 45 39 38 42 44 42 46 56 59 59
24 22 25 26 25 26 26 23 21 19 17 18 19 20 24 24 22 23 25 25 24 24 25 24 24 25 26 31 41 54 66 65 52 39 30 28 31 38 54 71 75 75
21 19 20 21 22 24 23 21 19 19 20 21 23 24 25 25 24 24 24 24 24 24 26 25 24 25 25 27 34 46 52 49 44 39 30 23 24 29 38 47 54 61
29 29 27 33 42 40 33 34 37 37 36 36 36 37 36 35 33 32 31 31 30 31 32 31 30 29 29 29 31 33 32 32 32 31 28 24 26 32 36 38 44 47
66 65 61 69 83 82 71 68 69 67 64 60 58 55 52 49 46 42 40 39 38 37 36 34 32 31 30 30 31 30 32 35 32 28 27 26 25 30 31 28 33 38
94 94 90 93 101 101 95 90 86 82 76 67 60 55 52 50 48 46 44 41 38 37 37 35 32 31 31 31 31 31 34 35 31 28 28 28 26 27 27 25 28 31
100 100 99 99 100 100 100 98 92 85 76 66 59 55 53 54 53 49 46 43 40 39 38 37 35 33 32 32 30 32 33 30 28 28 27 26 27 26 27 29 31 32

ECMWFNIL_500_rhum_033.txt.gz
RH
74 86 86 84 85 78 63 53 48 45 41 37 30 23 23 23 16 13 13 12 14 19 24 29 31 33 37 41 44 41 39 37 29 20 15 14 13 12 12 13 12 12
70 78 79 80 85 82 69 62 58 51 45 43 37 29 27 22 16 15 15 13 14 16 20 24 28 33 38 42 45 44 39 37 32 22 14 8 7 8 9 9 9 9
67 74 77 79 82 78 72 70 69 62 52 47 44 39 32 23 17 17 15 14 15 18 21 26 30 36 43 46 49 48 43 37 32 25 17 10 8 7 7 7 6 6
56 68 75 76 78 75 70 70 74 74 66 57 52 47 35 22 19 18 16 14 16 19 24 28 30 35 42 49 52 51 47 40 32 25 18 13 11 10 9 8 7 6
48 64 70 71 73 72 67 67 73 78 77 69 61 51 35 22 21 20 17 15 15 18 22 25 27 30 37 46 53 54 51 44 35 25 18 16 15 15 14 15 15 15
47 61 65 66 70 71 69 69 72 76 79 78 71 58 41 26 24 23 19 17 15 16 18 20 20 23 30 40 50 55 54 49 41 30 23 21 21 22 23 24 24 25
48 53 54 58 63 66 67 70 74 77 80 83 79 67 49 33 27 26 22 19 15 14 15 16 16 18 24 34 44 50 51 49 43 33 29 29 29 30 32 32 33 34
50 54 56 58 59 61 64 68 74 76 78 81 81 72 57 41 31 26 25 21 17 14 13 13 14 16 20 29 38 46 48 47 44 38 37 36 37 38 38 38 39 40
52 57 65 69 68 69 71 72 74 78 80 85 88 83 68 50 35 28 27 25 19 14 11 12 13 15 18 24 33 43 47 49 48 45 44 42 42 42 42 43 46 48
40 51 69 79 79 81 84 80 77 85 93 96 98 92 76 54 36 28 29 27 22 15 11 11 13 15 19 23 28 35 41 44 44 44 43 42 41 40 41 46 52 58
42 52 67 72 71 76 79 70 62 72 88 96 99 94 76 54 38 32 30 26 21 16 11 11 12 15 20 27 29 30 32 33 32 32 33 34 36 35 36 39 44 56
57 53 57 60 61 62 63 57 50 58 74 87 92 86 70 52 41 34 29 24 20 15 11 11 12 13 17 24 26 22 20 20 18 19 19 19 21 21 21 23 29 45
77 75 74 73 65 57 54 54 53 60 73 82 81 71 58 48 41 36 31 27 22 16 13 13 14 13 14 19 21 18 18 19 20 21 21 19 18 17 18 19 23 33
89 75 69 68 62 59 61 63 64 69 77 78 70 60 53 48 45 42 38 34 30 24 19 17 17 16 15 18 20 21 23 26 28 31 31 29 26 26 24 23 24 26
87 64 61 64 62 62 66 70 74 77 77 74 67 60 57 54 51 48 44 40 38 33 26 23 23 22 21 22 21 21 23 27 29 31 33 34 33 33 32 30 29 26
65 56 57 55 53 62 71 75 78 79 78 75 69 64 59 55 51 48 46 44 42 39 35 32 31 30 29 29 27 27 28 30 32 33 36 39 39 37 37 39 39 36
40 42 52 59 64 70 73 71 70 71 73 72 69 63 56 51 47 43 42 41 40 40 39 39 40 40 39 37 36 36 35 33 36 41 47 55 56 51 45 47 52 52
37 38 50 64 68 63 66 75 75 65 59 61 62 59 54 51 47 44 43 42 42 41 41 42 43 42 38 36 35 34 31 29 31 37 47 60 67 64 55 51 53 52
38 36 38 41 43 46 61 79 81 62 46 42 42 41 41 42 43 43 43 41 39 37 35 35 34 30 27 26 26 25 24 25 26 28 32 39 45 48 44 41 45 45
40 40 38 35 34 35 41 49 50 42 33 30 28 26 27 28 29 31 31 28 27 28 29 29 29 28 28 26 26 26 25 25 25 25 24 24 26 28 28 30 35 37
36 36 36 35 34 32 31 30 29 27 25 24 22 20 19 19 19 21 21 21 20 20 22 24 26 26 26 25 25 24 24 24 25 26 25 24 24 24 25 26 26 25
37 39 39 40 40 38 36 33 30 27 25 23 21 19 18 17 16 16 17 18 18 18 19 21 23 25 24 25 26 27 28 29 29 30 27 23 22 24 25 25 24 23
39 44 47 51 53 52 50 47 40 31 25 22 24 25 23 20 19 18 17 17 17 18 21 23 26 29 29 30 33 36 38 38 35 34 31 25 23 26 27 28 27 26
53 57 62 66 67 69 71 70 62 52 46 45 48 49 41 32 29 24 19 22 27 29 34 41 43 43 42 42 44 46 45 43 39 36 34 30 27 28 31 31 30 29
75 76 78 80 81 81 83 84 81 76 71 70 75 78 69 58 55 47 37 42 53 54 56 59 58 56 54 51 49 49 47 44 40 37 36 35 33 33 32 31 31 32
93 92 93 93 93 92 91 89 87 84 80 76 79 86 82 77 80 78 67 68 73 69 63 62 61 61 59 56 53 51 49 47 42 38 36 35 34 33 32 32 31 31